User: anonymous   Login
Location: Dob?e?
(49.9411°N, 15.1496°E)
Time: 06:39:34
(UTC+00:00)
Language:

XW-2B - Orbit

View from above orbital plane
View from above orbital plane
View from above satellite
View from above satellite

Ground track
Ground track

The orbit data is extracted from the following two-line orbital elements,

1 40911U 15049N   21298.76777211  .00001521  00000-0  79378-4 0  9991
2 40911  97.4890 300.0555 0015504  92.0155  82.2042 15.17369426337240
Epoch (UTC): 25 October 2021 18:25:35
Eccentricity: 0.0015504
inclination: 97.4890°
perigee height: 503 km
apogee height: 524 km
right ascension of ascending node: 300.0555°
argument of perigee: 92.0155°
revolutions per day: 15.17369426
mean anomaly at epoch: 82.2042°
orbit number at epoch: 33724

The dashed part of the orbit path shows where the satellite is in the earth's shadow,  

DLR